Flag for France Weather past 2 weeks in Strasbourg, France

Now
61 °F

Passing clouds.


Feels Like: 61 °F
Forecast: 43 / 49 °F
Wind: 8 mph from Southwest

Location: Strasbourg Airport

Current Time: Oct 21, 2014 at 10:47:37 AM

Latest Report: Oct 21, 2014 at 10:00 AM


Visibility: N/A

Pressure: 29.95 "Hg

Humidity: 83%

Dew point: 55 °F

Location of StrasbourgLocation

Historic Weather in Strasbourg — Graph

°F

Strasbourg temperature yesterday

Maximum temperature yesterday: 72 °F (at 12:30 PM)
Minimum temperature yesterday: 59 °F (at 3:00 AM)
Average temperature yesterday: 64 °F

Past Weeks' High & Low Weather Summary

 TemperatureHumidityPressure
High79 °F (Oct 19, 3:00 PM)100% (Oct 6, 9:00 AM)30.18 "Hg (Oct 6, 9:00 AM)
Low45 °F (Oct 12, 6:00 AM)50% (Oct 9, 3:00 PM)29.71 "Hg (Oct 7, 7:00 AM)
Average60 °F87%29.91 "Hg
* Reported Oct 6 9:00 AM — Oct 21 9:30 AM, Strasbourg, Weather by CustomWeather, © 2014

Note: Actual official high and low records may vary slightly from our data, if they occured in-between our weather recording intervals... More about our weather records

Advertising

Strasbourg weather history for previous 24 hours

 ConditionsComfort  
Time TempWeatherWind HumidityBarometerVisibility
9:30 AM
Oct 21
59 °FPassing clouds.9 mph88%29.95 "HgN/A
9:00 AM54 °FPassing clouds.2 mph100%29.95 "HgN/A
8:30 AM52 °FClear.1 mph94%29.95 "HgN/A
8:00 AM52 °FClear.2 mph94%29.95 "HgN/A
7:30 AM52 °FPassing clouds.2 mph100%29.95 "HgN/A
7:00 AM54 °FPassing clouds.No wind94%29.95 "Hg6 mi
6:30 AM54 °FPartly cloudy.No wind94%29.95 "Hg6 mi
6:00 AM55 °FPassing clouds.2 mph88%29.95 "HgN/A
5:30 AM55 °FMostly cloudy.5 mph94%29.98 "HgN/A
5:00 AM57 °FOvercast.6 mph88%29.98 "HgN/A
4:30 AM57 °FOvercast.5 mph82%29.98 "HgN/A
4:00 AM57 °FMostly cloudy.5 mph82%30.01 "HgN/A
3:30 AM57 °FMostly cloudy.7 mph82%30.01 "HgN/A
3:00 AM59 °FMostly cloudy.9 mph82%30.01 "HgN/A
2:30 AM59 °FMostly cloudy.6 mph82%30.04 "HgN/A
2:00 AM59 °FOvercast.6 mph88%30.04 "HgN/A
1:30 AM59 °FPartly cloudy.7 mph88%30.04 "HgN/A
1:00 AM59 °FPartly cloudy.6 mph88%30.04 "HgN/A
12:30 AM59 °FLight rain. Overcast.2 mph88%30.04 "HgN/A
12:00 AM59 °FOvercast.2 mph88%30.04 "HgN/A
11:30 PM
Oct 20
59 °FPassing clouds.3 mph94%30.04 "HgN/A
11:00 PM59 °FClear.5 mph94%30.04 "HgN/A
10:30 PM61 °FLight rain. Overcast.3 mph88%30.04 "HgN/A
10:00 PM61 °FLight rain. Passing clouds.3 mph88%30.04 "HgN/A
9:30 PM63 °FOvercast.6 mph83%30.04 "HgN/A
9:00 PM63 °FMostly cloudy.12 mph83%30.04 "HgN/A
8:30 PM63 °FPassing clouds.8 mph77%30.04 "HgN/A
8:00 PM63 °FClear.6 mph83%30.04 "HgN/A
7:30 PM64 °FMostly cloudy.1 mph78%30.04 "HgN/A
7:00 PM64 °FPartly sunny.3 mph78%30.04 "HgN/A
6:30 PM64 °FPartly sunny.6 mph78%30.04 "HgN/A
6:00 PM66 °FClear.5 mph73%30.04 "HgN/A
5:30 PM68 °FCloudy.7 mph69%30.04 "HgN/A
5:00 PM68 °FPartly sunny.6 mph69%30.07 "HgN/A
4:30 PM70 °FBroken clouds.3 mph64%30.07 "HgN/A
4:00 PM70 °FClear.6 mph64%30.07 "HgN/A
3:30 PM70 °FMore clouds than sun.5 mph64%30.07 "HgN/A
3:00 PM70 °FClear.5 mph69%30.07 "HgN/A
2:30 PM68 °FClear.6 mph69%30.07 "HgN/A
2:00 PM68 °FPartly sunny.2 mph73%30.09 "HgN/A
1:30 PM68 °FMostly cloudy.7 mph73%30.09 "HgN/A
1:00 PM68 °FMostly cloudy.7 mph78%30.09 "HgN/A
12:30 PM72 °FPartly sunny.3 mph69%30.12 "HgN/A
12:00 PM70 °FPartly sunny.5 mph73%30.12 "HgN/A
11:30 AM68 °FOvercast.5 mph78%30.12 "HgN/A
11:00 AM66 °FOvercast.7 mph78%30.12 "HgN/A
10:30 AM64 °FClear.6 mph83%30.12 "HgN/A
10:00 AM64 °FClear.6 mph83%30.12 "HgN/A
Weather by CustomWeather, © 2014

See weather overviewHow to use our weather pages